[[{"header":{"parameterUnit":"m.s-1","parameterCategory":1,"la1":30.2991,"la2":30.254,"lo1":-89.0895,"lo2":-89.0444,"dy":0.0017,"dx":0.0017,"nx":28,"ny":28,"refTime":"2024-06-01T21:00:00:Z","depth":0,"parameterNumber":2,"parameterNumberName":"U-component_of_WINDS"},"data":[0,0,0,0,0,0,0,0,0,0,0,0,0,0,0,0,0,0,0,0,0,0,0,0,0,0,0,0,0,0,0,0,0,0,0,0,0,0,0,0,0,0,0,0,0,0,0,0,0,0,0,0,0,0,0,0,0,0,0.345,0.3449,0,0.34,0.34,0.3399,0.3344,0.3343,0.3342,0.3341,0.3291,0.329,0.3289,0,0,0,0,0,0,0,0,0,0,0,0,0,0.3496,0.3496,0.345,0.3449,0.3449,0.34,0.34,0.3399,0.3344,0.3343,0.3342,0.3341,0.3291,0.329,0.3289,0,0,0,0,0,0,0,0,0,0,0,0,0,0.3465,0.3496,0.345,0.3415,0.3412,0.3401,0.34,0.3399,0.3344,0.3343,0.3342,0.3341,0.3291,0.329,0.3289,0.3308,0,0,0.3286,0.3286,0,0,0,0,0,0,0,0,0.3466,0.3463,0.3421,0.3418,0.3414,0.3377,0.3397,0.3368,0.3345,0.337,0.3341,0.334,0.332,0.3317,0.331,0.3306,0.3303,0.3286,0.3286,0.3285,0.3285,0,0,0,0,0,0,0,0.3469,0.3465,0.343,0.3421,0.3416,0.3402,0.3396,0.3392,0.3353,0.3368,0.3363,0.3358,0.3318,0.3311,0.3309,0.3303,0.3286,0.3286,0.3285,0.3285,0.3309,0.331,0,0,0,0,0,0,0.3476,0.3467,0.3432,0.3429,0.3438,0.3402,0.3396,0.339,0.3352,0.3346,0.3359,0.3356,0.3313,0.331,0.3307,0.3324,0.3285,0.3285,0.3284,0.3308,0.3309,0.331,0,0,0,0,0,0,0.3477,0.3474,0.3434,0.3447,0.3441,0.3403,0.3397,0.339,0.3383,0.3346,0.3339,0.336,0.3312,0.3308,0.3308,0.3322,0.3284,0.3283,0.3306,0.3308,0.331,0.3361,0,0,0,0,0,0,0.3479,0.3474,0.3481,0.3447,0.344,0.3436,0.3398,0.339,0.3381,0.3376,0.3345,0.3338,0.3311,0.3309,0.3307,0.332,0.3283,0.3305,0.3307,0.3309,0.3358,0.3365,0.337,0,0,0,0,0,0.3481,0.3498,0.3482,0.3478,0.3448,0.3437,0.3433,0.3401,0.3383,0.3389,0.3365,0.3339,0.3321,0.331,0.3306,0.332,0.3304,0.3306,0.3309,0.3356,0.3363,0.337,0,0,0,0,0,0,0.3535,0.3493,0.3475,0.3482,0.3463,0.3428,0.3435,0.3411,0.3398,0.3393,0.3355,0.3348,0.3352,0.3336,0.3324,0.3335,0.3308,0.3311,0.3345,0.3352,0.3358,0.3361,0.3282,0,0,0,0,0,0.3548,0.3543,0.3506,0.3516,0.3508,0.3473,0.3467,0.3444,0.3424,0.3416,0.3392,0.3373,0.3363,0.3357,0.3346,0.3356,0.3347,0.3363,0.337,0.3375,0.3377,0.3379,0.3385,0.3319,0.3319,0.3319,0,0,0.3574,0.3551,0.355,0.3526,0.3509,0.3504,0.3467,0.3463,0.3459,0.3415,0.3413,0.3395,0.3371,0.3376,0.3377,0.3362,0.3393,0.3378,0.3382,0.3381,0.3383,0.3389,0.3394,0.3321,0.3321,0.332,0,0,0.3619,0.3602,0.3607,0.359,0.3565,0.3542,0.3543,0.3511,0.3497,0.3495,0.3461,0.3455,0.3439,0.3423,0.3413,0.3451,0.3425,0.3448,0.3479,0.3482,0.3488,0.3492,0.3504,0.3509,0.3451,0.3451,0.3451,0,0.3655,0.3646,0.3612,0.361,0.36,0.3561,0.3565,0.3551,0.3524,0.3518,0.3502,0.348,0.3461,0.3461,0.347,0.3464,0.3463,0.3451,0.349,0.3494,0.3497,0.3508,0.3513,0.3454,0.3453,0.3453,0.3453,0,0.369,0.3685,0.3692,0.3666,0.3657,0.3658,0.3625,0.362,0.3598,0.3576,0.3573,0.3549,0.3531,0.353,0.3509,0.3526,0.3518,0.3497,0.3469,0.3507,0.3516,0.3521,0.3458,0.3457,0.3456,0.3455,0,0,0.3767,0.3722,0.3725,0.3712,0.3682,0.3676,0.3676,0.3658,0.3654,0.3637,0.3634,0.3621,0.3601,0.3589,0.3566,0.3569,0.3599,0.3547,0.3546,0.3556,0.3614,0.3629,0.3635,0.3582,0.3583,0.3583,0.3616,0,0.3805,0.3801,0.3771,0.3776,0.3769,0.3731,0.373,0.3711,0.3691,0.3682,0.366,0.365,0.3625,0.3618,0.3619,0.3595,0.3609,0.3592,0.3578,0.3578,0.3584,0.364,0.3656,0.3688,0.3619,0.362,0.362,0,0.3849,0.3833,0.3837,0.3805,0.3802,0.3801,0.3782,0.3775,0.3752,0.3737,0.3724,0.3697,0.3694,0.3669,0.3662,0.3651,0.3644,0.3631,0.3632,0.3628,0.3601,0.3636,0.3697,0.3701,0.3626,0.3626,0.3625,0,0.3902,0.3883,0.3882,0.3873,0.3836,0.3836,0.3821,0.3797,0.3788,0.3772,0.3765,0.3749,0.374,0.3727,0.3697,0.3682,0.3693,0.3666,0.3679,0.368,0.3682,0.3682,0.3741,0.3681,0.3681,0.368,0.368,0,0.3947,0.395,0.3905,0.3905,0.3907,0.3873,0.3876,0.3857,0.3836,0.383,0.3797,0.3793,0.3754,0.3744,0.3721,0.3718,0.3715,0.3701,0.3695,0.3703,0.3705,0.3697,0.3693,0.3682,0.3681,0.3681,0.3681,0,0.4006,0.3977,0.3973,0.3939,0.393,0.3933,0.3903,0.3901,0.3879,0.3872,0.3869,0.3834,0.3821,0.379,0.3769,0.3753,0.3756,0.3745,0.3764,0.376,0.3774,0.3772,0.3829,0.3833,0.3772,0.3772,0.3773,0,0.4036,0.4037,0.4003,0.3997,0.3983,0.3974,0.3965,0.3931,0.3922,0.3896,0.3897,0.3882,0.3867,0.3849,0.3821,0.3805,0.3792,0.3813,0.3789,0.3798,0.379,0.379,0.3789,0.3818,0.3819,0.3819,0.382,0,0.4091,0.4076,0.4064,0.4047,0.4036,0.4021,0.4004,0.4001,0.3963,0.3955,0.3942,0.3931,0.3909,0.3894,0.3874,0.3857,0.3832,0.3828,0.383,0.3838,0.3848,0.3841,0.3776,0.3826,0.3826,0.3825,0.3825,0.3825,0.4135,0.4134,0.4109,0.4097,0.408,0.4065,0.4061,0.4038,0.4027,0.4006,0.3987,0.3976,0.3952,0.3921,0.3907,0.3896,0.3883,0.3887,0.3887,0.3888,0.3891,0.3851,0.3893,0.3893,0.3892,0.3892,0.3892,0,0.4186,0.4169,0.4158,0.4135,0.4125,0.4102,0.4082,0.4075,0.4065,0.4045,0.4032,0.4016,0.4001,0.3973,0.3955,0.3952,0.394,0.3949,0.3948,0.3944,0.3905,0.3904,0.3959,0.3959,0.3959,0.3959,0.3959,0.3959,0.4212,0.4209,0.4191,0.4179,0.4162,0.415,0.414,0.4126,0.4109,0.4093,0.4081,0.4062,0.4038,0.4018,0.4003,0.3995,0.399,0.4002,0.399,0.3953,0.3947,0.3941,0.394,0.4001,0.4001,0.4029,0.4029,0.403]},{"header":{"parameterUnit":"m.s-1","parameterCategory":1,"la1":30.2991,"la2":30.254,"lo1":-89.0895,"lo2":-89.0444,"dy":0.0017,"dx":0.0017,"nx":28,"ny":28,"refTime":"2024-06-01T21:00:00:Z","depth":0,"parameterNumber":3,"parameterNumberName":"V-component_of_WINDS"},"data":[0,0,0,0,0,0,0,0,0,0,0,0,0,0,0,0,0,0,0,0,0,0,0,0,0,0,0,0,0,0,0,0,0,0,0,0,0,0,0,0,0,0,0,0,0,0,0,0,0,0,0,0,0,0,0,0,0,0,2.3696,2.3696,0,2.3645,2.3644,2.3644,2.3593,2.3592,2.3591,2.3591,2.3538,2.3537,2.3536,0,0,0,0,0,0,0,0,0,0,0,0,0,2.3749,2.3748,2.3696,2.3696,2.3695,2.3645,2.3644,2.3644,2.3593,2.3592,2.3591,2.359,2.3538,2.3537,2.3536,0,0,0,0,0,0,0,0,0,0,0,0,0,2.3714,2.3748,2.3697,2.3664,2.366,2.3645,2.3644,2.3643,2.3593,2.3592,2.3591,2.359,2.3539,2.3537,2.3536,2.3549,0,0,2.3533,2.3532,0,0,0,0,0,0,0,0,2.3716,2.3713,2.3669,2.3666,2.3662,2.3624,2.3643,2.3612,2.3593,2.3619,2.3591,2.359,2.3567,2.3564,2.3556,2.3547,2.3545,2.3533,2.3532,2.3531,2.3531,0,0,0,0,0,0,0,2.3719,2.3715,2.3676,2.3669,2.3664,2.3651,2.3645,2.3637,2.3599,2.3616,2.3612,2.3607,2.3565,2.3558,2.3555,2.3544,2.3533,2.3532,2.3531,2.353,2.3539,2.354,0,0,0,0,0,0,2.3726,2.3717,2.3678,2.3674,2.3687,2.3651,2.3644,2.3637,2.3599,2.3592,2.3608,2.3605,2.356,2.3556,2.3553,2.3563,2.3531,2.353,2.353,2.3538,2.3539,2.354,0,0,0,0,0,0,2.3728,2.3723,2.368,2.3695,2.3688,2.3651,2.3644,2.3637,2.3629,2.3593,2.3586,2.3607,2.3559,2.3554,2.355,2.356,2.353,2.3529,2.3537,2.3538,2.3539,2.3585,0,0,0,0,0,0,2.3729,2.3724,2.3729,2.3695,2.3687,2.3678,2.3645,2.3637,2.3627,2.3623,2.359,2.3584,2.3558,2.3552,2.3549,2.3558,2.3528,2.3536,2.3537,2.3539,2.3583,2.3588,2.3593,0,0,0,0,0,2.3732,2.3745,2.373,2.3726,2.3693,2.3679,2.3675,2.3645,2.3629,2.3633,2.3609,2.3585,2.356,2.3552,2.3548,2.3557,2.3535,2.3537,2.3539,2.358,2.3587,2.3593,0,0,0,0,0,0,2.3782,2.374,2.3723,2.3726,2.3706,2.3671,2.3675,2.3653,2.3638,2.3634,2.3597,2.359,2.3589,2.3573,2.3564,2.3566,2.3544,2.3545,2.3577,2.3583,2.3588,2.3591,2.3527,0,0,0,0,0,2.3794,2.3786,2.375,2.3756,2.3747,2.3713,2.3706,2.3684,2.3662,2.3654,2.363,2.361,2.3596,2.3589,2.3576,2.358,2.3571,2.3585,2.359,2.3594,2.3595,2.3593,2.3598,2.3547,2.3547,2.3547,0,0,2.3817,2.3793,2.3791,2.3765,2.3748,2.3739,2.3706,2.37,2.3693,2.3653,2.3646,2.3628,2.3603,2.3602,2.36,2.3588,2.3607,2.3597,2.36,2.3599,2.3596,2.3601,2.3605,2.3548,2.3548,2.3548,0,0,2.3856,2.3838,2.3839,2.3822,2.3795,2.3772,2.3773,2.374,2.3726,2.3719,2.3688,2.3679,2.3659,2.3641,2.3629,2.3658,2.3635,2.3655,2.3681,2.368,2.3684,2.3687,2.3695,2.3699,2.3657,2.3657,2.3657,0,2.3888,2.3875,2.3843,2.3838,2.3826,2.3789,2.3789,2.3774,2.3745,2.3737,2.3724,2.3696,2.3676,2.3669,2.3676,2.3669,2.3667,2.3658,2.3686,2.3689,2.3691,2.3699,2.3702,2.3659,2.3659,2.3659,2.3659,0,2.3915,2.3907,2.3911,2.3882,2.3872,2.387,2.3836,2.3829,2.3808,2.3786,2.3777,2.3753,2.3732,2.3729,2.3709,2.3718,2.3711,2.3693,2.3669,2.3699,2.3705,2.3708,2.3663,2.3662,2.3661,2.3661,0,0,2.3984,2.3937,2.3938,2.3924,2.3891,2.3883,2.3879,2.3858,2.3851,2.3832,2.3826,2.3808,2.379,2.3777,2.3754,2.3753,2.3774,2.3734,2.3733,2.374,2.378,2.3793,2.3797,2.3759,2.376,2.376,2.3782,0,2.4015,2.4004,2.3974,2.3972,2.3962,2.3926,2.3921,2.39,2.3879,2.3867,2.3844,2.3831,2.3809,2.38,2.3798,2.3773,2.3782,2.3771,2.3751,2.3751,2.3757,2.3801,2.3815,2.3836,2.3784,2.3784,2.3785,0,2.405,2.4031,2.4028,2.3993,2.3988,2.3985,2.3962,2.3952,2.3926,2.3911,2.3895,2.3869,2.386,2.384,2.3826,2.3819,2.3809,2.3795,2.3795,2.3791,2.3768,2.3795,2.3843,2.3845,2.3789,2.3788,2.3788,0,2.4097,2.4072,2.4066,2.4055,2.4015,2.4013,2.3996,2.397,2.3958,2.3939,2.393,2.391,2.3899,2.3883,2.3852,2.384,2.384,2.3818,2.3826,2.3826,2.3826,2.3826,2.3871,2.3823,2.3823,2.3823,2.3823,0,2.4133,2.4132,2.4086,2.4082,2.4079,2.4044,2.4042,2.4022,2.3998,2.3989,2.3957,2.3948,2.3909,2.3895,2.3871,2.3861,2.3857,2.3843,2.3836,2.3845,2.3846,2.3837,2.3834,2.3824,2.3824,2.3824,2.3824,0,2.4185,2.4154,2.4145,2.4108,2.4098,2.4097,2.4065,2.4059,2.4036,2.4024,2.4019,2.3982,2.3964,2.3932,2.3906,2.3889,2.3884,2.3874,2.3893,2.3888,2.3897,2.3896,2.3935,2.3937,2.3891,2.3891,2.3892,0,2.4209,2.4207,2.4169,2.4161,2.4145,2.4132,2.412,2.4085,2.4074,2.4043,2.404,2.402,2.4002,2.3975,2.3945,2.3924,2.3911,2.3927,2.3908,2.3916,2.3909,2.3908,2.3907,2.3931,2.3931,2.3932,2.3932,0,2.4255,2.4239,2.4223,2.4202,2.4188,2.417,2.4149,2.4144,2.4104,2.4093,2.4074,2.406,2.4032,2.4011,2.3985,2.3967,2.3942,2.3938,2.3939,2.3947,2.3957,2.3949,2.3902,2.3937,2.3937,2.3937,2.3936,2.3936,2.4291,2.4287,2.4259,2.4242,2.4223,2.4204,2.4196,2.4171,2.4155,2.4129,2.411,2.4092,2.4064,2.4027,2.401,2.3994,2.3983,2.3984,2.3984,2.3984,2.3986,2.3961,2.399,2.3989,2.3989,2.3989,2.3989,0,2.4333,2.4313,2.4298,2.427,2.4256,2.4234,2.421,2.4199,2.4184,2.416,2.4143,2.412,2.4099,2.4068,2.4044,2.4038,2.4026,2.4032,2.4032,2.4027,2.3999,2.4,2.4042,2.4042,2.4042,2.4042,2.4042,2.4042,2.4353,2.4344,2.4325,2.4305,2.4284,2.4267,2.4254,2.4236,2.4217,2.4193,2.4175,2.4155,2.4127,2.4101,2.408,2.4071,2.4063,2.4073,2.406,2.4035,2.403,2.4025,2.4025,2.4072,2.4072,2.4089,2.409,2.409]}]]